Regional Weather Roundup
Issued by NWS Glasgow, MT

Home | Current Version | Previous Version | Text Only | Print | Product List | Glossary On
Versions: 1 2 3 4 5 6 7 8 9 10 11 12 13 14 15 16 17 18 19 20 21 22 23 24 25 26 27 28 29 30 31 32 33 34 35 36 37 38 39 40 41 42 43 44 45 46 47 48 49 50
000
ASUS45 KGGW 202215
RWRGGW
HOURLY REGIONAL WEATHER ROUNDUP FOR NORTHEAST MONTANA
NATIONAL WEATHER SERVICE GLASGOW MONTANA
400 PM MDT WED SEP 20 2017

NOTE: "FAIR" INDICATES FEW OR NO CLOUDS BELOW 12,000 FEET WITH NO
SIGNIFICANT WEATHER AND/OR OBSTRUCTIONS TO VISISBILITY.

NORTHEAST MONTANA


CITY           SKY/WX    TMP DP  RH WIND       PRES   REMARKS
GLASGOW        CLOUDY    65  26  23 SW18      29.53R
WOLF POINT     CLOUDY    68  29  23 W18G25    29.56R
JORDAN           N/A     63  31  30 SW18G28   29.57R
WINNETT          N/A     60  29  30 NW15G30     N/A
SIDNEY         SUNNY     69  28  21 SW25G36   29.59R
GLENDIVE         N/A     69  27  20 W25G31    29.61S
SCOBEY           N/A     63  26  24 SW24G31   29.56R

FORT PECK REPORTS


CITY           SKY/WX    TMP DP  RH WIND       PRES   REMARKS
FORT PECK        N/A     63  39  41 S20G29      N/A
THE PINES        N/A     64  27  24 SW15G26     N/A

SOUTHEAST MONTANA


CITY           SKY/WX    TMP DP  RH WIND       PRES   REMARKS
BILLINGS       MOSUNNY   66  28  24 SW22G31   29.59F
MILES CITY     MOSUNNY   68  21  16 SW16G26   29.59F
BAKER          SUNNY     68  24  19 SW16G31   29.66F
LIVINGSTON     CLOUDY    59  31  34 SW28G40   29.59R

CENTRAL MONTANA


CITY           SKY/WX    TMP DP  RH WIND       PRES   REMARKS
HAVRE          CLOUDY    62  27  26 SW20      29.48S
LEWISTOWN      CLOUDY    51  34  52 W13       29.58S
GREAT FALLS    MOSUNNY   54  31  41 SW18G26   29.53F
CUT BANK       MOSUNNY   54  26  34 SW18G30   29.51R
HELENA         MOSUNNY   54  40  59 W5        29.60R
BUTTE          LGT RAIN  42  37  82 W12G23    29.67R
BOZEMAN        SUNNY     57  34  41 SW12      29.61F

WESTERN MONTANA


CITY           SKY/WX    TMP DP  RH WIND       PRES   REMARKS
MISSOULA       CLOUDY    44  41  89 SE7       29.68R
KALISPELL      NOT AVBL

NORTH DAKOTA


CITY           SKY/WX    TMP DP  RH WIND       PRES   REMARKS
WILLISTON      SUNNY     67  32  27 W20       29.59R
DICKINSON      SUNNY     68  28  22 SW22G28   29.65F
MINOT          MOSUNNY   70  32  24 SW23G32   29.61F
BISMARCK       SUNNY     72  36  26 SW10G23   29.70S

SOUTHERN SASKATCHEWAN


CITY           SKY/WX    TMP DP  RH WIND       PRES   REMARKS
REGINA         MOSUNNY   64  32  29 SW18G30   29.47R
MOOSE JAW      MOSUNNY   64  30  27 W16G25    29.46R
ESTEVAN        PTSUNNY   63  30  29 SW18G30   29.55S
SWIFT CURRENT  PTSUNNY   61  25  25 SW17G23   29.41S




USA.gov is the U.S. government's official web portal to all federal, state and local government web resources and services.